KKINGSHI2 Weather Reports


Display with metric or nautical units.
time (UTC)temp
F
wind
direction
speed
MPH
gust
MPH
rain 1hr
in
rain 24hr
in
rain mn
in
humidity
%
barometer
mb
20260505100110 78 164 4.0 9.0 0.00 0.01 0.00 88 1018.6
20260505094544 77 163 4.0 8.0 0.00 0.01 0.00 89 1018.4
20260505093042 77 151 4.0 10.0 0.00 0.01 0.00 89 1018.3
20260505091604 77 151 3.0 8.0 0.00 0.01 0.00 89 1018.1
20260505090055 77 149 2.0 8.0 0.00 0.01 0.00 89 1018.1
20260505084543 77 150 1.0 8.0 0.00 0.01 0.00 89 1018.0
20260505083048 77 149 1.0 5.0 0.00 0.01 0.00 89 1017.9
20260505081545 77 149 1.0 7.0 0.00 0.01 0.00 89 1017.9
20260505080049 77 149 1.0 5.0 0.00 0.01 0.00 89 1017.8
20260505074542 77 149 1.0 6.0 0.00 0.01 0.00 89 1017.6
20260505073050 77 149 0.0 5.0 0.00 0.01 0.00 89 1017.7
20260505071543 77 149 1.0 5.0 0.00 0.01 0.00 89 1017.8
20260505070038 77 149 0.0 2.0 0.00 0.01 0.00 89 1017.7
20260505064536 77 149 0.0 1.0 0.00 0.01 0.00 89 1017.7
20260505063045 77 149 0.0 1.0 0.00 0.01 0.00 89 1017.9
20260505061539 77 149 0.0 2.0 0.00 0.01 0.00 89 1017.9
20260505060033 77 149 0.0 3.0 0.00 0.01 0.00 88 1018.2
20260505054541 77 149 2.0 5.0 0.00 0.01 0.00 88 1018.3
20260505053028 77 149 0.0 5.0 0.00 0.01 0.00 88 1018.4
20260505051536 77 149 1.0 6.0 0.00 0.01 0.00 88 1018.6
20260505041540 77 148 2.0 6.0 0.00 0.01 0.00 89 1019.0
20260505040020 77 148 1.0 5.0 0.00 0.01 0.00 89 1019.2
20260505034518 77 148 0.0 0.0 0.00 0.01 0.00 89 1019.3
20260505033016 77 148 0.0 0.0 0.00 0.01 0.00 89 1019.4
20260505031526 77 148 0.0 0.0 0.00 0.01 0.00 89 1019.4
20260505030015 77 148 0.0 0.0 0.00 0.01 0.00 89 1019.4
20260505024513 77 148 0.0 3.0 0.00 0.01 0.01 89 1019.4
20260505023015 77 148 1.0 6.0 0.00 0.01 0.01 89 1019.4
20260505021512 77 148 1.0 6.0 0.00 0.01 0.01 89 1019.5
20260505020012 77 148 1.0 3.0 0.00 0.01 0.01 89 1019.4
20260505014515 77 148 0.0 6.0 0.00 0.01 0.01 88 1019.1
20260505013010 77 148 0.0 5.0 0.00 0.01 0.01 88 1019.0
20260505011513 77 148 0.0 6.0 0.00 0.01 0.01 88 1018.9
20260505010014 78 148 1.0 5.0 0.00 0.01 0.01 88 1018.9
20260505004509 78 148 2.0 8.0 0.00 0.01 0.01 87 1018.9
20260505003008 78 147 0.0 4.0 0.00 0.01 0.01 87 1018.8
20260505001508 79 147 1.0 4.0 0.00 0.01 0.01 86 1018.7
20260505000011 79 147 0.0 7.0 0.00 0.01 0.01 86 1018.7
20260504234507 79 147 1.0 8.0 0.00 0.01 0.01 86 1018.5
20260504233005 79 147 2.0 7.0 0.00 0.01 0.01 85 1018.3
20260504231505 79 147 2.0 8.0 0.00 0.01 0.01 85 1018.0
20260504230009 79 147 3.0 8.0 0.00 0.01 0.01 85 1017.9
20260504224509 79 137 2.0 9.0 0.00 0.01 0.01 85 1017.6
20260504223003 80 152 3.0 10.0 0.00 0.01 0.01 84 1017.4
20260504221503 80 111 1.0 8.0 0.00 0.01 0.01 83 1017.2
20260504220002 80 164 7.0 14.0 0.00 0.01 0.01 82 1017.2
20260504214501 81 163 5.0 10.0 0.00 0.01 0.01 81 1017.2
20260504213002 81 181 4.0 12.0 0.00 0.01 0.01 80 1017.0
20260504211602 81 151 6.0 13.0 0.00 0.01 0.01 78 1016.8
20260504210104 82 150 7.0 14.0 0.00 0.01 0.01 78 1016.9
20260504204603 83 142 8.0 16.0 0.00 0.01 0.01 76 1016.8
20260504203058 83 180 7.0 16.0 0.00 0.01 0.01 73 1016.7
20260504201604 83 119 9.0 16.0 0.00 0.01 0.01 71 1016.8
20260504194555 83 93 8.0 17.0 0.00 0.01 0.01 77 1017.2
20260504193054 83 110 7.0 14.0 0.00 0.01 0.01 78 1017.2
20260504191607 82 144 7.0 16.0 0.01 0.01 0.01 79 1017.2
20260504190054 81 175 2.0 10.0 0.01 0.01 0.01 85 1017.3
20260504184551 80 100 7.0 14.0 0.01 0.01 0.01 85 1017.5
20260504183050 81 112 5.0 17.0 0.01 0.01 0.01 83 1017.6
20260504181551 85 134 5.0 15.0 0.00 0.00 0.00 74 1017.6
20260504180048 84 92 6.0 14.0 0.00 0.00 0.00 74 1017.6
20260504174553 85 166 8.0 23.0 0.00 0.00 0.00 72 1018.1
20260504173046 85 89 8.0 17.0 0.00 0.00 0.00 73 1018.0
20260504171545 87 108 7.0 17.0 0.00 0.00 0.00 70 1018.0